[[{"header":{"parameterUnit":"m.s-1","parameterCategory":1,"la1":30.2991,"la2":30.254,"lo1":-89.0895,"lo2":-89.0444,"dy":0.0017,"dx":0.0017,"nx":28,"ny":28,"refTime":"2025-03-09T03:00:00:Z","depth":0,"parameterNumber":2,"parameterNumberName":"U-component_of_WINDS"},"data":[0,0,0,0,0,0,0,0,0,0,0,0,0,0,0,0,0,0,0,0,0,0,0,0,0,0,0,0,0,0,0,0,0,0,0,0,0,0,0,0,0,0,0,0,0,0,0,0,0,0,0,0,0,0,0,0,0,0,3.6089,3.6089,0,3.6092,3.6092,3.6092,3.6009,3.6007,3.6005,3.6002,3.6005,3.6008,3.601,0,0,0,0,0,0,0,0,0,0,0,0,0,3.6012,3.6014,3.6089,3.6089,3.6089,3.6092,3.6092,3.6092,3.6009,3.6007,3.6004,3.6001,3.6005,3.6007,3.601,0,0,0,0,0,0,0,0,0,0,0,0,0,3.6033,3.6014,3.6089,3.6048,3.6044,3.6092,3.6092,3.6092,3.601,3.6007,3.6003,3.6,3.6004,3.6007,3.601,3.6097,0,0,3.602,3.6022,0,0,0,0,0,0,0,0,3.6032,3.6036,3.6054,3.6051,3.6047,3.6047,3.6066,3.6094,3.6011,3.6023,3.6002,3.5998,3.6022,3.6023,3.6031,3.6097,3.6097,3.602,3.6022,3.6024,3.6025,0,0,0,0,0,0,0,3.6031,3.6036,3.609,3.6054,3.605,3.603,3.6029,3.6071,3.6041,3.6022,3.6016,3.6017,3.6019,3.6028,3.6031,3.6098,3.602,3.6023,3.6025,3.6026,3.6237,3.6241,0,0,0,0,0,0,3.6035,3.6035,3.609,3.609,3.6031,3.6034,3.6033,3.605,3.604,3.6036,3.602,3.6013,3.6025,3.6027,3.6031,3.6133,3.6024,3.6027,3.6029,3.6234,3.6238,3.6242,0,0,0,0,0,0,3.6033,3.6041,3.609,3.6061,3.6066,3.6039,3.6059,3.6052,3.6061,3.6039,3.6034,3.6035,3.6022,3.6026,3.6082,3.6132,3.6028,3.6031,3.6229,3.6235,3.624,3.6338,0,0,0,0,0,0,3.6032,3.6041,3.6073,3.6062,3.6068,3.6141,3.6062,3.6055,3.6067,3.6058,3.6052,3.6047,3.602,3.6077,3.6085,3.6134,3.6034,3.6225,3.6232,3.6238,3.633,3.6346,3.636,0,0,0,0,0,3.6029,3.61,3.6075,3.6082,3.6108,3.6144,3.6147,3.6114,3.6071,3.6104,3.609,3.6048,3.6125,3.6084,3.6092,3.6143,3.6221,3.623,3.6238,3.6324,3.6343,3.636,0,0,0,0,0,0,3.6116,3.6098,3.607,3.6139,3.6144,3.613,3.617,3.6135,3.6152,3.6143,3.6101,3.6101,3.6163,3.6158,3.6113,3.6228,3.6166,3.6176,3.6228,3.6247,3.6261,3.6261,3.6036,0,0,0,0,0,3.6144,3.6175,3.6157,3.622,3.6224,3.6197,3.6211,3.6186,3.6189,3.619,3.618,3.6185,3.6211,3.6228,3.6251,3.6329,3.6327,3.6369,3.6383,3.6396,3.6405,3.6448,3.6466,3.6269,3.6269,3.6269,0,0,3.62,3.6194,3.6216,3.6237,3.6238,3.6272,3.6199,3.6237,3.6262,3.6196,3.6248,3.6242,3.6244,3.6313,3.6342,3.631,3.6459,3.6406,3.6416,3.6419,3.6458,3.6477,3.6494,3.6275,3.6274,3.6273,0,0,3.6321,3.6319,3.6372,3.6375,3.6377,3.6359,3.6372,3.6364,3.6357,3.6409,3.6361,3.639,3.6434,3.6439,3.6447,3.6572,3.6534,3.6581,3.6658,3.67,3.6716,3.6729,3.6775,3.6792,3.659,3.659,3.659,0,3.6391,3.6439,3.6403,3.6446,3.6457,3.64,3.6454,3.6458,3.6468,3.6477,3.6442,3.6498,3.6495,3.6565,3.6596,3.6604,3.6618,3.6581,3.6717,3.673,3.6742,3.6785,3.6802,3.6596,3.6595,3.6595,3.6594,0,3.6526,3.6561,3.6603,3.6615,3.6631,3.6679,3.6651,3.6672,3.6646,3.6632,3.6686,3.6682,3.6703,3.6718,3.6692,3.6784,3.6764,3.6724,3.6661,3.6767,3.6807,3.6823,3.6604,3.6602,3.66,3.6599,0,0,3.67,3.6693,3.6709,3.6714,3.6714,3.674,3.6786,3.6808,3.6827,3.6836,3.6874,3.6914,3.6877,3.6887,3.6861,3.6898,3.6999,3.6853,3.6852,3.6881,3.7102,3.7133,3.7153,3.6974,3.6977,3.698,3.7102,0,3.6817,3.6896,3.6866,3.6946,3.6979,3.6926,3.6967,3.6971,3.696,3.6986,3.6974,3.7003,3.6952,3.6957,3.6992,3.698,3.7043,3.697,3.701,3.7012,3.7011,3.7173,3.7206,3.7322,3.7117,3.712,3.7122,0,3.6965,3.6981,3.7065,3.7061,3.7074,3.711,3.7129,3.7154,3.7159,3.7148,3.716,3.7127,3.7173,3.7111,3.7174,3.7125,3.7139,3.7136,3.714,3.7142,3.7073,3.7181,3.7358,3.7375,3.7146,3.7144,3.7142,0,3.7084,3.7127,3.7184,3.719,3.7186,3.7214,3.7213,3.7215,3.723,3.7246,3.7256,3.7277,3.7289,3.7306,3.728,3.7237,3.7348,3.7283,3.7341,3.7342,3.7366,3.7365,3.7548,3.7375,3.7375,3.7375,3.7374,0,3.7219,3.7273,3.7238,3.7273,3.7332,3.7298,3.7357,3.7351,3.7353,3.7387,3.7342,3.7374,3.7338,3.7367,3.7347,3.7403,3.7408,3.7402,3.7396,3.7406,3.7407,3.7415,3.7406,3.7379,3.7378,3.7377,3.7376,0,3.7362,3.7341,3.7399,3.7392,3.7391,3.7435,3.7429,3.7461,3.7448,3.749,3.7498,3.7477,3.7509,3.7485,3.7516,3.7503,3.7577,3.756,3.7576,3.7571,3.7631,3.7626,3.7826,3.7851,3.7662,3.7664,3.7665,0,3.745,3.749,3.7488,3.7507,3.751,3.7541,3.7557,3.7526,3.7544,3.7554,3.7586,3.7614,3.7635,3.7689,3.7677,3.7701,3.7684,3.7753,3.7687,3.7697,3.7686,3.7684,3.7689,3.7766,3.7768,3.777,3.7771,0,3.7608,3.7596,3.7621,3.7643,3.7664,3.7679,3.7691,3.771,3.7678,3.7701,3.7734,3.775,3.7783,3.7812,3.7833,3.7832,3.7798,3.7792,3.7807,3.7818,3.7826,3.7823,3.7613,3.7787,3.7786,3.7785,3.7784,3.7783,3.7726,3.7761,3.7765,3.7794,3.7801,3.7814,3.7844,3.7835,3.7862,3.7887,3.7866,3.7906,3.7911,3.7935,3.794,3.797,3.7942,3.7963,3.7969,3.7975,3.7984,3.7821,3.7974,3.7973,3.7973,3.7973,3.7972,0,3.7883,3.7883,3.7911,3.793,3.7954,3.792,3.7932,3.7954,3.799,3.7998,3.802,3.8059,3.8087,3.8078,3.8104,3.813,3.8115,3.8138,3.8136,3.8137,3.8007,3.7992,3.815,3.815,3.815,3.815,3.815,3.815,3.7967,3.8024,3.8013,3.8072,3.8072,3.8111,3.8121,3.8134,3.814,3.8185,3.8209,3.8203,3.8205,3.8231,3.8256,3.8252,3.8264,3.8294,3.8285,3.8163,3.8146,3.8129,3.8115,3.8297,3.8297,3.8412,3.8413,3.8414]},{"header":{"parameterUnit":"m.s-1","parameterCategory":1,"la1":30.2991,"la2":30.254,"lo1":-89.0895,"lo2":-89.0444,"dy":0.0017,"dx":0.0017,"nx":28,"ny":28,"refTime":"2025-03-09T03:00:00:Z","depth":0,"parameterNumber":3,"parameterNumberName":"V-component_of_WINDS"},"data":[0,0,0,0,0,0,0,0,0,0,0,0,0,0,0,0,0,0,0,0,0,0,0,0,0,0,0,0,0,0,0,0,0,0,0,0,0,0,0,0,0,0,0,0,0,0,0,0,0,0,0,0,0,0,0,0,0,0,-4.1408,-4.141,0,-4.1547,-4.1549,-4.155,-4.1557,-4.1555,-4.1553,-4.1552,-4.1689,-4.1694,-4.1699,0,0,0,0,0,0,0,0,0,0,0,0,0,-4.1145,-4.115,-4.1408,-4.141,-4.1412,-4.1547,-4.1549,-4.155,-4.1557,-4.1555,-4.1553,-4.1551,-4.1687,-4.1693,-4.17,0,0,0,0,0,0,0,0,0,0,0,0,0,-4.1269,-4.1151,-4.1408,-4.1431,-4.1435,-4.1546,-4.1549,-4.1551,-4.1557,-4.1555,-4.1552,-4.155,-4.1685,-4.1693,-4.1701,-4.1797,0,0,-4.1724,-4.1728,0,0,0,0,0,0,0,0,-4.1262,-4.1279,-4.1426,-4.143,-4.1434,-4.1532,-4.1506,-4.1633,-4.1558,-4.1511,-4.1552,-4.1549,-4.1638,-4.165,-4.1681,-4.1803,-4.1809,-4.1725,-4.173,-4.1733,-4.1735,0,0,0,0,0,0,0,-4.1253,-4.1273,-4.1463,-4.1428,-4.1433,-4.1434,-4.1448,-4.153,-4.1586,-4.1514,-4.1515,-4.1532,-4.164,-4.1674,-4.1684,-4.1811,-4.1725,-4.1732,-4.1736,-4.1739,-4.202,-4.2023,0,0,0,0,0,0,-4.1241,-4.1265,-4.1458,-4.1467,-4.134,-4.144,-4.1457,-4.1503,-4.1585,-4.1596,-4.1534,-4.1532,-4.1662,-4.1675,-4.1689,-4.1808,-4.1733,-4.174,-4.1745,-4.2017,-4.2021,-4.2024,0,0,0,0,0,0,-4.1235,-4.1258,-4.1453,-4.1367,-4.1392,-4.1447,-4.1499,-4.1507,-4.1541,-4.16,-4.161,-4.1558,-4.166,-4.1678,-4.1771,-4.1813,-4.1744,-4.1751,-4.2014,-4.2018,-4.2022,-4.2046,0,0,0,0,0,0,-4.1228,-4.1256,-4.1294,-4.1368,-4.1396,-4.1533,-4.1502,-4.1511,-4.1554,-4.1553,-4.1625,-4.1635,-4.166,-4.1759,-4.1778,-4.1822,-4.1757,-4.201,-4.2016,-4.2021,-4.2041,-4.205,-4.2058,0,0,0,0,0,-4.1218,-4.1294,-4.1296,-4.1319,-4.1445,-4.1536,-4.1552,-4.158,-4.1558,-4.1596,-4.1634,-4.1633,-4.1805,-4.1768,-4.179,-4.1837,-4.2008,-4.2014,-4.202,-4.2038,-4.2049,-4.2058,0,0,0,0,0,0,-4.1222,-4.1304,-4.1307,-4.1409,-4.1466,-4.1536,-4.1585,-4.159,-4.1653,-4.1649,-4.168,-4.1696,-4.1788,-4.1822,-4.1779,-4.1935,-4.1904,-4.1915,-4.191,-4.192,-4.1928,-4.1918,-4.1763,0,0,0,0,0,-4.1235,-4.1303,-4.137,-4.1454,-4.1482,-4.1529,-4.1569,-4.1587,-4.1646,-4.1669,-4.1714,-4.177,-4.1837,-4.1881,-4.1945,-4.2046,-4.2062,-4.2089,-4.2098,-4.2104,-4.2113,-4.2169,-4.2182,-4.2044,-4.2044,-4.2044,0,0,-4.1261,-4.1315,-4.1356,-4.1456,-4.1502,-4.157,-4.1549,-4.1622,-4.1673,-4.168,-4.177,-4.1805,-4.187,-4.1967,-4.2012,-4.1998,-4.2155,-4.2112,-4.2117,-4.2122,-4.2177,-4.219,-4.2202,-4.2049,-4.2048,-4.2047,0,0,-4.1346,-4.1393,-4.1468,-4.1515,-4.1586,-4.1617,-4.1634,-4.1706,-4.173,-4.1821,-4.1828,-4.1888,-4.2003,-4.2049,-4.2087,-4.2191,-4.2191,-4.2211,-4.2253,-4.2308,-4.2319,-4.2328,-4.2365,-4.2378,-4.2219,-4.222,-4.222,0,-4.137,-4.1475,-4.1506,-4.158,-4.1624,-4.1635,-4.1711,-4.1754,-4.1841,-4.1871,-4.1854,-4.1999,-4.2043,-4.2152,-4.2177,-4.2208,-4.2229,-4.2202,-4.2315,-4.2325,-4.2335,-4.237,-4.2384,-4.2221,-4.2221,-4.2221,-4.2221,0,-4.1501,-4.1574,-4.1626,-4.1713,-4.1762,-4.1837,-4.1878,-4.1924,-4.1937,-4.1969,-4.2062,-4.2116,-4.2193,-4.222,-4.2232,-4.233,-4.2319,-4.2309,-4.2278,-4.2349,-4.2383,-4.2397,-4.2224,-4.2223,-4.2223,-4.2222,0,0,-4.1591,-4.1694,-4.1713,-4.1753,-4.1832,-4.1888,-4.1963,-4.2039,-4.2078,-4.2138,-4.2201,-4.2299,-4.229,-4.2333,-4.2351,-4.2399,-4.2478,-4.2383,-4.2385,-4.2399,-4.2589,-4.2597,-4.2612,-4.2479,-4.2482,-4.2484,-4.2584,0,-4.1684,-4.1819,-4.185,-4.1965,-4.2033,-4.2045,-4.211,-4.2165,-4.2197,-4.2258,-4.2293,-4.2362,-4.2345,-4.2372,-4.242,-4.2458,-4.2517,-4.2451,-4.2537,-4.254,-4.2521,-4.263,-4.2638,-4.273,-4.2597,-4.26,-4.2601,0,-4.1811,-4.1876,-4.1999,-4.207,-4.2099,-4.2158,-4.223,-4.2289,-4.2351,-4.2372,-4.2421,-4.2435,-4.2512,-4.2478,-4.2585,-4.254,-4.2577,-4.2601,-4.2605,-4.2614,-4.2575,-4.2642,-4.276,-4.2774,-4.2623,-4.2621,-4.2619,0,-4.1864,-4.1982,-4.2071,-4.2105,-4.219,-4.223,-4.2267,-4.2328,-4.2372,-4.2435,-4.2464,-4.2535,-4.2573,-4.2627,-4.2659,-4.2631,-4.2764,-4.2732,-4.2782,-4.2781,-4.2809,-4.2807,-4.2934,-4.2833,-4.2833,-4.2832,-4.2832,0,-4.1965,-4.2039,-4.2097,-4.2151,-4.2235,-4.2269,-4.2351,-4.2388,-4.2441,-4.2503,-4.2517,-4.2574,-4.2612,-4.2675,-4.27,-4.2785,-4.2802,-4.282,-4.2825,-4.2819,-4.2816,-4.2843,-4.2837,-4.2836,-4.2835,-4.2834,-4.2834,0,-4.2038,-4.2079,-4.2178,-4.2251,-4.2271,-4.233,-4.2392,-4.2445,-4.2478,-4.2556,-4.2576,-4.2627,-4.2701,-4.2739,-4.283,-4.2847,-4.2943,-4.2944,-4.2922,-4.2925,-4.2972,-4.2967,-4.3122,-4.3144,-4.3027,-4.3028,-4.3029,0,-4.21,-4.2158,-4.2238,-4.2281,-4.232,-4.2388,-4.2434,-4.2469,-4.2516,-4.2593,-4.2636,-4.2712,-4.2774,-4.2892,-4.2936,-4.3007,-4.301,-4.3059,-4.3021,-4.3012,-4.3011,-4.3007,-4.3013,-4.3066,-4.3067,-4.3068,-4.3069,0,-4.2205,-4.2223,-4.2289,-4.2363,-4.2418,-4.2477,-4.2536,-4.257,-4.2614,-4.2666,-4.2743,-4.2792,-4.2887,-4.2961,-4.3035,-4.3071,-4.3078,-4.3081,-4.3096,-4.309,-4.3074,-4.3083,-4.2941,-4.3077,-4.3076,-4.3076,-4.3075,-4.3075,-4.2274,-4.2327,-4.2392,-4.2465,-4.2514,-4.2568,-4.2622,-4.2663,-4.2728,-4.281,-4.2826,-4.2907,-4.2969,-4.3069,-4.3108,-4.3172,-4.3161,-4.3183,-4.3188,-4.3193,-4.3196,-4.3065,-4.3185,-4.3185,-4.3185,-4.3185,-4.3184,0,-4.238,-4.2423,-4.249,-4.2573,-4.2631,-4.2633,-4.2698,-4.2746,-4.2819,-4.2876,-4.2937,-4.3026,-4.3098,-4.3149,-4.3223,-4.3264,-4.3269,-4.3282,-4.3279,-4.3288,-4.3201,-4.3181,-4.3277,-4.3277,-4.3277,-4.3277,-4.3277,-4.3277,-4.2442,-4.2531,-4.2557,-4.267,-4.2712,-4.2794,-4.2831,-4.2881,-4.2927,-4.3026,-4.3087,-4.3121,-4.3175,-4.3253,-4.332,-4.3333,-4.3359,-4.3372,-4.3385,-4.3303,-4.3294,-4.3284,-4.3265,-4.3378,-4.3378,-4.3467,-4.3468,-4.3468]}]]